Flag for U.S.A. Weather past 2 weeks in Plano, Texas, U.S.A.

Now
67 °F

Overcast.


Feels Like: 67 °F
Forecast: 59 / 77 °F
Wind: 6 mph from Southeast

Location: McKinney Municipal Airport

Current Time: Mar 30, 2015 at 11:45:57 AM

Latest Report: Mar 30, 2015 at 10:53 AM


Visibility: 10 mi

Pressure: 30.18 "Hg

Humidity: 85%

Dew point: 62 °F

Location of PlanoLocation

Historic Weather in Plano — Graph

°F

Plano temperature yesterday

Maximum temperature yesterday: 83 °F (at 5:53 PM)
Minimum temperature yesterday: 54 °F (at 5:53 AM)
Average temperature yesterday: 69 °F

Past Weeks' High & Low Weather Summary

 TemperatureHumidityPressure
High83 °F (Mar 29, 5:53 PM)100% (Mar 16, 5:53 AM)30.33 "Hg (Mar 16, 5:53 AM)
Low41 °F (Mar 27, 5:53 AM)33% (Mar 26, 5:53 PM)29.75 "Hg (Mar 25, 10:53 PM)
Average61 °F75%30.06 "Hg
* Reported Mar 15 10:58 AM — Mar 30 10:53 AM, Plano, Weather by CustomWeather, © 2015

Note: Actual official high and low records may vary slightly from our data, if they occured in-between our weather recording intervals... More about our weather records

Advertising

Plano weather history for previous 24 hours

 ConditionsComfort  
Time TempWeatherWind HumidityBarometerVisibility
10:53 AM
Mon, Mar 30
67 °FOvercast.6 mph85%30.18 "Hg10 mi
10:01 AM65 °FMostly cloudy.5 mph85%30.17 "Hg10 mi
8:53 AM63 °FPartly sunny.3 mph78%30.16 "Hg10 mi
7:53 AM57 °FClear.No wind87%30.16 "Hg10 mi
6:53 AM56 °FClear.3 mph84%30.14 "Hg10 mi
5:53 AM58 °FClear.No wind78%30.11 "Hg10 mi
4:53 AM57 °FClear.5 mph81%30.11 "Hg10 mi
3:53 AM62 °FClear.No wind75%30.11 "Hg10 mi
2:53 AM65 °FClear.6 mph70%30.11 "Hg10 mi
1:53 AM65 °FClear.8 mph73%30.10 "Hg10 mi
12:53 AM67 °FPassing clouds.7 mph68%30.09 "Hg10 mi
11:53 PM
Sun, Mar 29
68 °FPassing clouds.8 mph65%30.08 "Hg10 mi
10:53 PM72 °FMostly cloudy.3 mph57%30.08 "Hg10 mi
9:53 PM70 °FOvercast.3 mph68%30.07 "Hg10 mi
8:53 PM73 °FPassing clouds.8 mph57%30.04 "Hg10 mi
7:53 PM75 °FSunny.10 mph50%29.99 "Hg10 mi
6:53 PM80 °FSunny.14 mph44%29.97 "Hg10 mi
5:53 PM83 °FSunny.12 mph40%29.96 "Hg10 mi
4:53 PM82 °FSunny.16 mph43%29.95 "Hg10 mi
3:53 PM82 °FSunny.22 mph43%29.93 "Hg10 mi
2:53 PM81 °FSunny.23 mph45%29.95 "Hg10 mi
1:53 PM80 °FSunny.21 mph45%29.98 "Hg10 mi
12:53 PM77 °FSunny.23 mph44%29.99 "Hg10 mi
11:53 AM73 °FSunny.16 mph50%30.02 "Hg10 mi
Weather by CustomWeather, © 2015

See weather overviewHow to use our weather pages